EW6329 Weather Reports


Display with metric or nautical units.
time (UTC)temp
F
wind
direction
speed
MPH
gust
MPH
rain 1hr
in
rain 24hr
in
rain mn
in
humidity
%
barometer
mb
20260901111519 75 294 0.0 0.0 0.00 0.00 0.00 87 1015.8
20260901110035 75 294 0.0 0.0 0.00 0.00 0.00 87 1015.7
20260901104545 75 294 0.0 0.0 0.00 0.00 0.00 86 1015.7
20260901103059 75 294 0.0 0.0 0.00 0.00 0.00 86 1015.6
20260901101509 75 294 0.0 0.0 0.00 0.00 0.00 86 1015.5
20260901100022 76 294 0.0 0.0 0.00 0.00 0.00 85 1015.3
20260901094532 76 294 0.0 0.0 0.00 0.00 0.00 86 1015.2
20260901093045 76 294 0.0 0.0 0.00 0.00 0.00 85 1015.2
20260901091609 76 294 0.0 0.0 0.00 0.00 0.00 85 1015.2
20260901090010 76 294 0.0 0.0 0.00 0.00 0.00 85 1015.2
20260901084522 76 294 0.0 0.0 0.00 0.00 0.00 85 1015.1
20260901083035 76 294 0.0 0.0 0.00 0.00 0.00 85 1015.0
20260901081549 76 294 0.0 0.0 0.00 0.00 0.00 85 1015.0
20260901074511 77 294 0.0 0.0 0.00 0.00 0.00 84 1015.0
20260901073025 77 294 0.0 0.0 0.00 0.00 0.00 83 1015.0
20260901071543 77 294 0.0 0.0 0.00 0.00 0.00 83 1014.8
20260901070051 77 294 0.0 0.0 0.00 0.00 0.00 83 1014.8
20260901064604 77 294 0.0 0.0 0.00 0.00 0.00 82 1014.8
20260901063014 78 294 0.0 0.0 0.00 0.00 0.00 82 1014.9
20260901061525 78 294 0.0 0.0 0.00 0.00 0.00 80 1014.9
20260901060039 78 294 0.0 0.0 0.00 0.00 0.00 80 1014.9
20260901054654 79 294 0.0 0.0 0.00 0.00 0.00 79 1015.0
20260901053102 79 294 0.0 0.0 0.00 0.00 0.00 79 1015.0
20260901051511 79 294 0.0 0.0 0.00 0.00 0.00 78 1014.9
20260901050025 79 294 0.0 0.0 0.00 0.00 0.00 78 1014.9
20260901044544 80 294 0.0 0.0 0.00 0.00 0.00 77 1015.0
20260901043051 80 294 0.0 0.0 0.00 0.00 0.00 77 1014.9
20260901041501 80 294 0.0 0.0 0.00 0.00 0.00 76 1014.8
20260901040015 81 294 0.0 2.0 0.00 0.00 0.00 75 1014.8
20260901034532 81 294 0.0 0.0 0.00 0.00 0.00 73 1014.7
20260901033043 81 294 0.0 0.0 0.00 0.00 0.00 73 1014.7
20260901031558 82 294 0.0 0.0 0.00 0.00 0.00 72 1014.7
20260901030009 82 294 0.0 0.0 0.00 0.00 0.00 71 1014.7
20260901024522 83 292 0.0 0.0 0.00 0.00 0.00 70 1014.7
20260901023041 83 292 0.0 0.0 0.00 0.00 0.00 69 1014.5
20260901021553 84 292 0.0 0.0 0.00 0.00 0.00 67 1014.5
20260901014512 85 292 0.0 0.0 0.00 0.00 0.00 65 1014.1
20260901013028 86 292 0.0 0.0 0.00 0.00 0.00 64 1013.9
20260901011538 87 292 0.0 0.0 0.00 0.00 0.00 61 1013.8
20260901010054 88 292 0.0 0.0 0.00 0.00 0.00 59 1013.6
20260901004502 89 292 0.0 0.0 0.00 0.00 0.00 57 1013.5
20260901003019 90 292 0.0 0.0 0.00 0.00 0.00 56 1013.5
20260901001529 91 292 0.0 0.0 0.00 0.00 0.00 55 1013.5
20260901000048 92 292 0.0 0.0 0.00 0.00 0.00 54 1013.5
20260831234556 92 292 0.0 0.0 0.00 0.00 0.00 53 1013.5
20260831233010 92 292 0.0 0.0 0.00 0.00 0.00 53 1013.6
20260831231528 92 292 0.0 0.0 0.00 0.00 0.00 53 1013.7
20260831230038 92 292 0.0 0.0 0.00 0.00 0.00 54 1013.6
20260831224545 93 292 0.0 0.0 0.00 0.00 0.00 51 1013.7
20260831223058 93 292 0.0 0.0 0.00 0.00 0.00 51 1013.9
20260831221508 93 292 0.0 2.0 0.00 0.00 0.00 51 1014.0
20260831220021 93 292 0.0 2.0 0.00 0.00 0.00 49 1014.0
20260831214535 95 292 0.0 2.0 0.00 0.00 0.00 46 1014.0
20260831213049 95 292 0.0 2.0 0.00 0.00 0.00 50 1014.1
20260831211602 94 292 0.0 2.0 0.00 0.00 0.00 49 1014.3
20260831210011 93 292 0.0 2.0 0.00 0.00 0.00 53 1014.4
20260831204526 93 292 0.0 2.0 0.00 0.00 0.00 49 1014.4
20260831203038 94 292 0.0 2.0 0.00 0.00 0.00 49 1014.6
20260831201550 94 292 0.0 2.0 0.00 0.00 0.00 50 1014.7
20260831200059 94 292 0.0 3.0 0.00 0.00 0.00 49 1014.9
20260831194511 94 292 0.0 2.0 0.00 0.00 0.00 49 1015.0
20260831193025 94 292 0.0 2.0 0.00 0.00 0.00 50 1015.1
20260831191535 93 292 0.0 2.0 0.00 0.00 0.00 51 1015.3
20260831190047 93 292 0.0 2.0 0.00 0.00 0.00 52 1015.6
20260831184601 93 292 0.0 2.0 0.00 0.00 0.00 52 1015.7
20260831183009 90 307 0.0 2.0 0.00 0.00 0.00 57 1016.1
20260831181522 91 307 0.0 2.0 0.00 0.00 0.00 57 1016.3
20260831180034 90 302 1.0 3.0 0.00 0.00 0.00 57 1016.5
20260831174549 91 300 0.0 2.0 0.00 0.00 0.00 59 1016.5
20260831173105 90 300 0.0 2.0 0.00 0.00 0.00 56 1016.8
20260831171512 91 300 0.0 2.0 0.00 0.00 0.00 55 1016.9
20260831170025 90 299 0.0 3.0 0.00 0.00 0.00 59 1017.1
20260831164540 89 292 0.0 2.0 0.00 0.00 0.00 61 1017.1
20260831163050 89 292 0.0 3.0 0.00 0.00 0.00 60 1017.2
20260831161608 88 292 0.0 2.0 0.00 0.00 0.00 61 1017.2
20260831160016 89 316 0.0 2.0 0.00 0.00 0.00 60 1017.2
20260831154526 88 320 0.0 3.0 0.00 0.00 0.00 63 1017.2
20260831153038 87 294 0.0 4.0 0.00 0.00 0.00 65 1017.1
20260831151548 86 310 0.0 2.0 0.00 0.00 0.00 68 1017.0
20260831150100 85 310 0.0 4.0 0.00 0.00 0.00 70 1017.0
20260831144508 83 310 0.0 3.0 0.00 0.00 0.00 72 1016.9
20260831143018 81 310 0.0 2.0 0.00 0.00 0.00 78 1017.0
20260831141633 80 310 0.0 1.0 0.00 0.00 0.00 81 1016.9
20260831140043 78 310 0.0 2.0 0.00 0.00 0.00 83 1017.1
20260831134556 76 311 0.0 2.0 0.00 0.00 0.00 88 1017.0
20260831133010 74 311 0.0 2.0 0.00 0.00 0.00 90 1016.9
20260831131532 73 311 0.0 0.0 0.00 0.00 0.00 91 1016.8
20260831130034 73 311 0.0 0.0 0.00 0.00 0.00 91 1016.7
20260831124547 73 311 0.0 2.0 0.00 0.00 0.00 91 1016.7
20260831123102 72 311 0.0 0.0 0.00 0.00 0.00 90 1016.5
20260831121514 72 311 0.0 0.0 0.00 0.00 0.00 90 1016.2
20260831120019 72 311 0.0 0.0 0.00 0.00 0.00 89 1016.1
20260831114534 72 311 0.0 0.0 0.00 0.00 0.00 89 1016.0
20260831113046 72 311 0.0 0.0 0.00 0.00 0.00 89 1015.8